Weather History for McGuire AFB, NJ

Change the Weather History Date:

Thursday, April 10, 2014

  Actual Average Record
Temperature  
Mean Temperature 48 °F -  
Max Temperature 66 °F 59 °F 88 °F (2013)
Min Temperature 31 °F 39 °F 28 °F (1997)
Degree Days  
Heating Degree Days 16    
Moisture  
Dew Point 28 °F    
Average Humidity 41    
Maximum Humidity 83    
Minimum Humidity 24    
Precipitation  
Precipitation 0.00 in - - ()
Sea Level Pressure  
Sea Level Pressure 30.12 in    
Wind  
Wind Speed 7 mph (SSW)    
Max Wind Speed 18 mph    
Max Gust Speed 25 mph    
Visibility 10 miles    
Events      
Averages and records for this station are not official NWS values.
T = Trace of Precipitation, MM = Missing Value Source: NWS Daily Summary

Daily Weather History Graph

Daily Weather History Graph

Search for Another Location

Airport:

Trip Planner

Search our weather history database for the weather conditions in past years. The results will help you decide how hot, cold, wet, or windy it might be!

Date:

Astronomy

Apr. 10, 2014 Rise Set
Actual Time 6:28 AM EDT 7:31 PM EDT
Civil Twilight 6:00 AM EDT 7:59 PM EDT
Nautical Twilight 5:27 AM EDT 8:32 PM EDT
Astronomical Twilight 4:53 AM EDT 9:07 PM EDT
Moon 3:13 PM EDT (4/10) 3:49 AM EDT (4/10)
Length of Visible Light 13h 59m
Length of Day
13h 03m
Waxing Gibbous, 79% of the Moon is Illuminated
Apr 10
Waxing Gibbous
Apr 15
Full
Apr 22
Last Quarter
Apr 29
New
May 6
First Quarter

Hourly Weather History & Observations

Time (EDT) Temp. Windchill Dew Point Humidity Pressure Visibility Wind Dir Wind Speed Gust Speed Precip Events Conditions
12:58 AM 41.7 °F - 27.3 °F 57% 30.05 in 10.0 mi Calm Calm - N/A   Clear
1:58 AM 41.0 °F 37.1 °F 26.2 °F 56% 30.07 in 10.0 mi NNE 5.8 mph - N/A   Clear
2:58 AM 39.7 °F - 25.9 °F 58% 30.09 in 10.0 mi South 2.3 mph - N/A   Clear
3:58 AM 35.6 °F - 26.8 °F 70% 30.10 in 10.0 mi Calm Calm - N/A   Clear
4:58 AM 33.6 °F - 26.4 °F 75% 30.12 in 10.0 mi Calm Calm - N/A   Clear
5:58 AM 31.8 °F - 27.1 °F 83% 30.14 in 10.0 mi Calm Calm - N/A   Clear
6:58 AM 32.2 °F - 27.3 °F 82% 30.17 in 10.0 mi Calm Calm - N/A   Clear
7:58 AM 40.8 °F 37.8 °F 30.7 °F 67% 30.19 in 10.0 mi SE 4.6 mph - N/A   Clear
8:58 AM 49.3 °F - 23.5 °F 36% 30.21 in 10.0 mi South 8.1 mph - N/A   Clear
9:58 AM 54.1 °F - 22.8 °F 30% 30.22 in 10.0 mi SSW 9.2 mph - N/A   Clear
10:58 AM 57.7 °F - 24.6 °F 28% 30.22 in 10.0 mi South 8.1 mph - N/A   Clear
11:58 AM 60.6 °F - 28.2 °F 29% 30.20 in 10.0 mi South 16.1 mph 20.7 mph N/A   Clear
12:14 PM 60.8 °F - 28.4 °F 29% 30.17 in 10.0 mi SW 13.8 mph 18.4 mph N/A   Clear
12:57 PM 62.6 °F - 28.4 °F 27% 30.14 in 10.0 mi SW 18.4 mph 25.3 mph N/A   Clear
12:58 PM 62.1 °F - 28.0 °F 28% 30.16 in 10.0 mi SW 16.1 mph 25.3 mph N/A   Clear
1:46 PM 64.4 °F - 28.4 °F 26% 30.12 in 10.0 mi SW 18.4 mph 23.0 mph N/A   Clear
1:58 PM 63.7 °F - 28.4 °F 26% 30.13 in 10.0 mi SSW 12.7 mph 18.4 mph N/A   Clear
2:20 PM 64.4 °F - 28.4 °F 26% 30.11 in 10.0 mi SW 16.1 mph - N/A   Clear
2:35 PM 66.2 °F - 28.4 °F 24% 30.11 in 10.0 mi SSW 12.7 mph 18.4 mph N/A   Clear
2:58 PM 65.8 °F - 28.8 °F 25% 30.11 in 10.0 mi SW 10.4 mph 23.0 mph N/A   Clear
3:25 PM 66.2 °F - 30.2 °F 26% 30.09 in 10.0 mi WSW 16.1 mph 24.2 mph N/A   Clear
3:58 PM 66.2 °F - 29.8 °F 26% 30.09 in 10.0 mi SSW 10.4 mph 24.2 mph N/A   Clear
4:58 PM 66.2 °F - 30.9 °F 27% 30.07 in 10.0 mi SSW 18.4 mph 25.3 mph N/A   Clear
5:58 PM 64.0 °F - 30.6 °F 28% 30.06 in 10.0 mi SSW 17.3 mph 25.3 mph N/A   Clear
6:58 PM 59.4 °F - 31.8 °F 35% 30.09 in 10.0 mi SSW 17.3 mph 23.0 mph N/A   Clear
7:58 PM 55.4 °F - 30.0 °F 38% 30.08 in 10.0 mi South 11.5 mph - N/A   Clear
8:58 PM 54.0 °F - 29.7 °F 39% 30.07 in 10.0 mi South 10.4 mph - N/A   Clear
9:58 PM 52.9 °F - 30.0 °F 42% 30.06 in 10.0 mi SSW 10.4 mph 20.7 mph N/A   Clear
10:58 PM 53.8 °F - 28.9 °F 39% 30.04 in 10.0 mi SSW 12.7 mph - N/A   Mostly Cloudy
11:58 PM 53.6 °F - 29.8 °F 40% 30.04 in 10.0 mi SSW 13.8 mph 21.9 mph N/A   Mostly Cloudy